Regional Weather Roundup
Issued by NWS

Home | Current Version | Previous Version | Text Only | Print | Product List | Glossary On
Versions: 1 2 3 4 5 6 7 8 9 10 11 12 13 14 15 16 17 18 19 20 21 22 23 24 25 26 27 28 29 30 31 32 33 34 35 36 37 38 39 40 41 42 43 44 45 46 47 48 49 50
000
ASUS42 KTBW 272310
RWRFL
FLORIDA REGIONAL WEATHER ROUNDUP
NATIONAL WEATHER SERVICE TAMPA BAY RUSKIN FL
600 PM EST FRI FEB 27 2015

NOTE: "FAIR" INDICATES FEW OR NO CLOUDS BELOW 12,000 FEET WITH NO
SIGNIFICANT WEATHER AND/OR OBSTRUCTIONS TO VISIBILITY.


FLZ001>010-012>015-112-114-115-280000-
PANHANDLE FLORIDA

CITY           SKY/WX    TMP DP  RH WIND       PRES   REMARKS
PENSACOLA      PTCLDY    57  30  35 N7        30.27S
PENSACOLA NAS  MOCLDY    56  33  42 NE9       30.27R
MILTON NAS     MOCLDY    56  30  37 NE7       30.28S
CRESTVIEW      PTCLDY    58  32  37 NE8       30.29S
DUKE FIELD     MOCLDY    57  30  36 NE7       30.27S
VALPARAISO     MOCLDY    56  31  38 NE10      30.26S
MARY ESTHER    MOCLDY    56  27  33 NE9       30.26R
TRI COUNTY     FAIR      56  34  43 N8        30.30R
PANAMA CITY    FAIR      54  36  50 N6        30.27R
TYNDALL AFB    CLOUDY    53  37  55 VRB7      30.27R
APALACHICOLA   CLOUDY    57  41  55 NE12      30.26R

STATION/POSITION SKY/WX   TEMP    WIND        PRES    WAVE   SWELL
                          AIR SEA DIR/SP/G            HT/PER HT/PER
                          (F)     (DEG/KT/KT) (MB)    (FT/S) (FT/S)
30.1N   87.6W              56 62   40/ 16/ 17 1024.6R   2/ 4
29.2N   88.2W              54 69   60/ 19/ 23 1024.9R   5/ 7
PANAMA CITY BEAC           54 57   30/  7/ 12 1024.7R
CAPE SAN BLAS    NOT AVBL
TOWER C                    53      50/ 20/ 23 1024.3R
28.5N   84.5W              55 65   50/ 19/ 23 1022.9F   6/ 6

$$
FLZ011-016>038-118-127-128-134-139-239-280000-
NORTH FLORIDA

CITY           SKY/WX    TMP DP  RH WIND       PRES   REMARKS
MARIANNA       CLOUDY    54  37  52 NE10      30.29R
TALLAHASSEE    CLOUDY    55  38  52 N8        30.29R
PERRY          CLOUDY    52  41  66 NE3       30.29R
CROSS CITY       N/A     53  37  54 NE9       30.27R
LAKE CITY      FAIR      50  37  62 NE6       30.30R
GAINESVILLE    MOCLDY    53  40  61 E12       30.27R
MAYPORT NAS    MOCLDY    50  43  77 N14G23    30.31R WCI  45
JACKSONVILLE   CLOUDY    48  39  71 NE13      30.32R WCI  43
JAX NAS        MOCLDY    53  39  59 NE18      30.31R
JAX CRAIG      MOCLDY    50  41  71 NE15G22   30.31R WCI  45
JAX CECIL      CLEAR     50  36  57 NE12      30.31R
FERNANDINA BEA FAIR      54  41  62 NE13      30.30S
ST AUGUSTINE   CLOUDY    51  46  83 N17       30.31R

STATION/POSITION SKY/WX   TEMP    WIND        PRES    WAVE   SWELL
                          AIR SEA DIR/SP/G            HT/PER HT/PER
                          (F)     (DEG/KT/KT) (MB)    (FT/S) (FT/S)
SHELL POINT      NOT AVBL
KEATON BEACH               51      40/  5/  8 1025.8R
CEDAR KEY                  56      50/ 10/ 13 1024.1R
FERNANDINA                 49 54   30/ 11/ 17 1026.1R
30.7N   81.3W                 53                N/A     5/ 6
MAYPORT                    50 55   20/ 17/ 20 1026.3R
31.4N   80.9W              49 52   40/ 19/ 23 1026.6R   5/ 6   2/11
ST AUGUSTINE               51     360/ 22/ 26 1025.8R

$$
FLZ040-043>046-052-053-057-058-063-144-280000-
INTERIOR CENTRAL FLORIDA

CITY           SKY/WX    TMP DP  RH WIND       PRES   REMARKS
OCALA          CLOUDY    55  41  58 NE8       30.25R
THE VILLAGES     N/A     55  46  71 N13       30.15R
LEESBURG       CLOUDY    54  46  74 NE13      30.25R
SANFORD        CLOUDY    54  48  80 N14       30.24R
ORLANDO EXEC   CLOUDY    56  48  74 N16       30.23R
ORLANDO INTL   CLOUDY    56  50  80 N21G26    30.22R
KISSIMMEE      CLOUDY    55  52  88 NE12      30.22R
WINTER HAVEN   CLOUDY    57  49  74 NE13      30.23R
LAKELAND       CLOUDY    57  48  72 N10       30.21S
BARTOW         CLOUDY    55  48  76 NE10      30.22R
OKEECHOBEE     CLOUDY    55  54  94 N10       30.18S

$$
FLZ041-047-054-059-064-141-147-280000-
EAST CENTRAL FLORIDA

CITY           SKY/WX    TMP DP  RH WIND       PRES   REMARKS
ORMOND BEACH   CLOUDY    52  46  82 N15G23    30.26R FOG
DAYTONA BEACH  CLOUDY    54  48  80 N16G22    30.25R
DELAND         CLOUDY    52  46  82 N9        30.27R
NEW SMYRNA BEA CLOUDY    55  50  82 N21G35    30.25R
JFK SPACE CTR  CLOUDY    56  53  91 N15G22    30.20R
TITUSVILLE     CLOUDY    55  54  94 N17       30.21S FOG
CAPE CANAVERAL LGT RAIN  57  55  94 N13       30.19R
PATRICK AFB    DRIZZLE   58  56  96 N18       30.18F
MELBOURNE      CLOUDY    57  55  93 N15       30.18F
VERO BEACH     CLOUDY    60  57  89 N13       30.17S
FT PIERCE      CLOUDY    60  58  92 VRB7G17   30.16S
STUART         SHOWER    61  59  94 N10G22    30.16S FOG

STATION/POSITION SKY/WX   TEMP    WIND        PRES    WAVE   SWELL
                          AIR SEA DIR/SP/G            HT/PER HT/PER
                          (F)     (DEG/KT/KT) (MB)    (FT/S) (FT/S)
28.5N   80.2W              65 68   40/ 14/ 16 1021.8R
28.9N   78.5W              67 73   50/ 21/ 25 1021.5F   5/11   3/11
TRIDENT PIER     NOT AVBL
28.4N   80.5W                 64                N/A     3/ 7
27.6N   80.2W                 71                N/A     6/ 6   2/11

$$
FLZ050-056-061-142-242-148-248-149-249-151-251-155-255-
160-260-280000-
WEST CENTRAL FLORIDA

CITY           SKY/WX    TMP DP  RH WIND       PRES   REMARKS
CRYSTAL RIVER  CLOUDY    59  41  51 NE10      30.23R
INVERNESS      CLOUDY    59  39  47 NE9       30.24R
BROOKSVILLE    CLOUDY    61  46  57 E14       30.22R
ZEPHYRHILLS    CLOUDY    57  45  62 CALM      30.23R
CLEARWATER     CLOUDY    62  51  67 NE9       30.19R
TAMPA INTL     CLOUDY    61  48  62 NE12      30.21R
TAMPA EXEC     CLOUDY    61  50  67 E10       30.21R
PLANT CITY     CLOUDY   N/A N/A N/A NE8G16    30.22S
MACDILL AFB    CLOUDY    61  53  76 NE9       30.20R
PETER O KNIGHT CLOUDY    61  52  72 NE10      30.21R
ST PETERSBURG  CLOUDY    62  52  69 E16       30.19R
SARASOTA       CLOUDY    59  51  75 NE10      30.17R
VENICE         CLOUDY    57  55  94 NE16      30.18R

STATION/POSITION SKY/WX   TEMP    WIND        PRES    WAVE   SWELL
                          AIR SEA DIR/SP/G            HT/PER HT/PER
                          (F)     (DEG/KT/KT) (MB)    (FT/S) (FT/S)
CEDAR KEY                  56      50/ 10/ 13 1024.1R
28.5N   84.5W              55 65   50/ 19/ 23 1022.9F   6/ 6
27.3N   84.3W                 69                N/A     5/ 6
CLEARWATER BEACH           63 62   50/  6/ 11 1022.2R
MIDDLE TAMPA BAY           60      80/ 12/ 14 1022.5R
VENICE                     56 63   50/ 13/ 16 1021.2R

$$
FLZ066-069-070-075>078-162-262-165-265-280000-
SOUTHWEST FLORIDA AND KEYS

CITY           SKY/WX    TMP DP  RH WIND       PRES   REMARKS
PUNTA GORDA    CLOUDY    57  53  86 NE14      30.19R
FT MYERS       CLOUDY    60  55  83 NE14      30.14S
SOUTHWEST INTL CLOUDY    60  54  80 NE15      30.15S
NAPLES         CLOUDY    62  57  83 NE16      30.13R
MARCO ISLAND   CLOUDY    63  55  77 NE14      30.13R
IMMOKALEE      CLOUDY   N/A N/A N/A N13       30.16S
MARATHON       PTCLDY    76  73  91 E6        30.06S
KEY WEST NAS   MOCLDY    69  65  86 N17       30.08R
KEY WEST INTL  PTCLDY    69  66  90 N13G20    30.08R

STATION/POSITION SKY/WX   TEMP    WIND        PRES    WAVE   SWELL
                          AIR SEA DIR/SP/G            HT/PER HT/PER
                          (F)     (DEG/KT/KT) (MB)    (FT/S) (FT/S)
VENICE                     56 63   50/ 13/ 16 1021.2R
NAPLES                     62 66   50/  8/ 13 1020.2R
26.0N   85.6W              66 76   40/ 19/ 21 1019.8S   6/ 7
DRY TORTUGAS               66      40/ 20/ 23 1018.2F
SAND KEY                   68      20/ 19/ 21 1018.3R
SOMBRERO KEY               75      90/  9/  9 1018.8R
LONG KEY                   76 78   90/  9/ 10 1018.7R
MOLASSES REEF              74 75   30/ 12/ 14 1018.3R

$$
FLZ067-068-071>074-168-172>174-280000-
SOUTHEAST FLORIDA

CITY           SKY/WX    TMP DP  RH WIND       PRES   REMARKS
W PALM BEACH   CLOUDY    66  65  96 N13       30.13R FOG
FT LAUDER-EXEC MOCLDY    69  65  86 NW8       30.12R
FT LAUDERDALE  CLOUDY    69  65  86 N10       30.11R
POMPANO BEACH  CLOUDY    70  64  81 N12       30.12R
PEMBROKE PINES CLOUDY    69  64  84 N12       30.13R
OPA LOCKA      CLOUDY    70  64  81 N12       30.12R
MIAMI          MOCLDY    71  64  78 N9        30.11R
WEST KENDALL   CLEAR     69  63  81 N13       30.11R
HOMESTEAD      CLOUDY    73  64  73 N12       30.09R

STATION/POSITION SKY/WX   TEMP    WIND        PRES    WAVE   SWELL
                          AIR SEA DIR/SP/G            HT/PER HT/PER
                          (F)     (DEG/KT/KT) (MB)    (FT/S) (FT/S)
PORT EVERGLADES            71     320/  6/ 11 1019.6
VIRGINIA KEY               72 75   30/  8/ 12 1018.8R
LAKE WORTH                 68 73  350/ 13/ 16 1019.8R
SETTLEMENT POINT           71      50/ 22/ 24 1020.4R

$$




USA.gov is the U.S. government's official web portal to all federal, state and local government web resources and services.